STARLINK-34247, 65083

Orbit data source: Space-Track

STARLINK-34247, 65083 is a payload satellite owned by SpaceX/Seattle (US) in LEO that was launched on Mon, 04 Aug 2025 UTC via an FALCON 9 launch vehicle from the Air Force Eastern Test Range (AFETR). Payload-class satellites include a variety of spacecraft equipped with specific instruments for various scientific and technological missions. These include communications satellites like Starlink; space stations such as the ISS; scientific satellites like the Hubble; Earth observation satellites from companies like Planet Labs, Umbra, and HawkEye 360; GPS; miniature CubeSats for education and research; and military/defense satellites.

Loading next visibility...
Identifier
65083, 2025-167F
Orbit
LEO
Country
Flag of USUS
Related business
Manufacturer
SpaceX/Seattle
Mission
Operational spacecraft
Bus & Motor
STARLINK V2MO, Unknown motor
Mass
575 kg wet, ~530 kg dry
Launch date (UTC)
2025-08-04 (1 month ago)
Launch vehicle
FALCON 9
Launch site
Air Force Eastern Test Range (AFETR)
Object type
Payload
Rocket body
Debris
Shape & HBR
Unknown
Radar Cross Section
Large (>1 m²)

Expand to show TLE details & history
Last TLE update: 9 hours ago

TLE from 9 hours ago
0 STARLINK-34247
1 65083U 25167F   25243.25001157 -.01598295  00000-0 -30708-1 0  9990
2 65083  53.1596 195.2685 0001183  78.4660  26.2877 15.50416309  5554
Epoch: 2025-08-31T06:00Z
TLE epoch observation values (Epoch: 2025-08-31T06:00:00.999Z)
Latitude
50.85675°
Longitude
-120.66211°
Altitude
420.796 km
Speed
7.665 km/s
True Right ascension
20h 36m 03s
True Declination
50° 40' 48"
Sunlit
Object was in full shadow at epoch
Visualization orbit readout
Latitude
Unknown
Longitude
Unknown
Altitude
Unknown
Speed
Unknown
Apparent Right ascension
Unknown
Apparent Declination
Unknown
Sunlit
N/A
Visualization observer readout
Local Sidereal Time
06:13:59
Azimuth
Unknown
Elevation
Unknown
Doppler factor
Unknown
Orbital elements
Apogee altitude
416.572 km
Perigee altitude
414.965 km
Semi-major axis
6,793.905 km
Eccentricity
0.00012
Inclination
53.1596°
RAAN
195.2685°
Arg. of periapsis
78.466°
True anomaly
26.2937°
Mean anomaly
26.2877°
Eccentric anomaly
26.2907°
Mean motion
3.87582 °/min
Orbital period
92.88 mins
BSTAR
-0.030708
Loading maneuver chart data...
Computing Atmospheric mass density...
Loading historical data...
Loading historical data...
Loading historical data...
Loading historical data...
Loading historical data...
Loading historical data...
Loading historical data...

Documentation

Showing up to 5 results
|